FW8690 Weather Reports


time (UTC)temp
F
wind
direction
speed
knots
gust
knots
rain 1hr
in
rain 24hr
in
rain mn
in
humidity
%
barometer
mb
20260507155504 60 0 0.0 0.0 0.00 0.00 0.00 55 1014.7
20260507155004 60 309 0.0 0.9 0.00 0.00 0.00 55 1014.7
20260507154504 60 309 0.0 0.9 0.00 0.00 0.00 55 1014.7
20260507154004 60 0 0.0 0.0 0.00 0.00 0.00 54 1014.7
20260507153504 60 0 0.0 0.0 0.00 0.00 0.00 56 1014.7
20260507153003 60 0 0.0 0.0 0.00 0.00 0.00 54 1014.8
20260507152714 60 0 0.0 0.0 0.00 0.00 0.00 54 1014.7
20260507152004 60 308 0.0 0.9 0.00 0.00 0.00 56 1014.8
20260507151504 60 308 0.0 0.9 0.00 0.00 0.00 55 1014.9
20260507151003 60 308 0.0 0.9 0.00 0.00 0.00 55 1014.9
20260507150504 60 309 0.0 0.9 0.00 0.00 0.00 56 1015.1
20260507150004 60 0 0.0 0.0 0.00 0.00 0.00 56 1015.0
20260507145503 60 0 0.0 0.0 0.00 0.00 0.00 54 1015.2
20260507145003 60 308 0.0 0.9 0.00 0.00 0.00 55 1015.2
20260507144503 60 308 0.0 0.9 0.00 0.00 0.00 54 1015.2
20260507144003 60 0 0.0 0.0 0.00 0.00 0.00 53 1015.2
20260507143503 60 0 0.0 0.0 0.00 0.00 0.00 54 1015.2
20260507143003 60 308 0.0 0.0 0.00 0.00 0.00 53 1015.3
20260507142713 60 308 0.0 0.0 0.00 0.00 0.00 53 1015.3
20260507142003 61 0 0.0 0.0 0.00 0.00 0.00 50 1015.4
20260507141503 60 308 0.0 0.9 0.00 0.00 0.00 53 1015.5
20260507141003 60 308 0.0 0.9 0.00 0.00 0.00 51 1015.6
20260507140503 60 308 0.0 0.9 0.00 0.00 0.00 51 1015.5
20260507140004 60 308 0.0 0.9 0.00 0.00 0.00 50 1015.5
20260507135713 60 308 0.0 0.9 0.00 0.00 0.00 50 1015.5
20260507135214 61 308 0.0 0.9 0.00 0.00 0.00 49 1015.5
20260507134503 61 0 0.0 0.0 0.00 0.00 0.00 49 1015.4
20260507134004 61 308 0.0 0.0 0.00 0.00 0.00 50 1015.4
20260507133503 61 308 0.0 0.0 0.00 0.00 0.00 48 1015.5
20260507133003 61 0 0.0 0.0 0.00 0.00 0.00 49 1015.4
20260507132503 60 0 0.0 0.0 0.00 0.00 0.00 50 1015.5
20260507132214 60 0 0.0 0.0 0.00 0.00 0.00 49 1015.5
20260507131504 60 308 0.0 0.9 0.00 0.00 0.00 48 1015.5
20260507131004 61 308 0.0 0.9 0.00 0.00 0.00 46 1015.6
20260507130713 61 0 0.0 0.0 0.00 0.00 0.00 47 1015.6
20260507130004 62 0 0.0 0.0 0.00 0.00 0.00 47 1015.6
20260507125504 61 308 0.0 0.9 0.00 0.00 0.00 50 1015.5
20260507125004 61 308 0.0 0.9 0.00 0.00 0.00 50 1015.5
20260507124503 61 0 0.0 0.0 0.00 0.00 0.00 52 1015.5
20260507124003 61 309 0.0 0.9 0.00 0.00 0.00 50 1015.5
20260507123503 61 309 0.0 0.9 0.00 0.00 0.00 51 1015.6
20260507123004 61 308 0.0 0.9 0.00 0.00 0.00 51 1015.6
20260507122504 61 308 0.0 0.9 0.00 0.00 0.00 51 1015.6
20260507122214 61 308 0.0 0.9 0.00 0.00 0.00 51 1015.6
20260507121504 61 308 0.0 0.9 0.00 0.00 0.00 51 1015.7
20260507121003 62 0 0.0 0.0 0.00 0.00 0.00 52 1015.6
20260507120503 61 0 0.0 0.0 0.00 0.00 0.00 58 1015.6
20260507120003 60 308 0.0 0.9 0.00 0.00 0.00 55 1015.6
20260507115504 60 308 0.0 0.9 0.00 0.00 0.00 56 1015.7
20260507115004 60 0 0.0 0.0 0.00 0.00 0.00 54 1015.8
20260507114504 60 308 0.0 0.0 0.00 0.00 0.00 56 1015.7
20260507114004 61 308 0.0 0.0 0.00 0.00 0.00 55 1015.8
20260507113504 61 0 0.0 0.0 0.00 0.00 0.00 59 1015.7
20260507113003 61 0 0.0 0.0 0.00 0.00 0.00 59 1015.7
20260507112503 61 0 0.0 0.0 0.00 0.00 0.00 59 1015.7
20260507112003 61 308 0.0 0.0 0.00 0.00 0.00 57 1015.7
20260507111504 60 308 0.0 0.0 0.00 0.00 0.00 58 1015.7
20260507111003 60 0 0.0 0.0 0.00 0.00 0.00 58 1015.7
20260507110504 60 308 0.0 0.9 0.00 0.00 0.00 59 1015.7
20260507110213 60 308 0.0 0.9 0.00 0.00 0.00 60 1015.8
20260507105504 60 0 0.0 0.0 0.00 0.00 0.00 55 1015.8
20260507105004 60 0 0.0 0.0 0.00 0.00 0.00 59 1015.8
20260507104504 60 309 0.0 0.9 0.00 0.00 0.00 57 1015.8
20260507104004 60 309 0.0 0.9 0.00 0.00 0.00 58 1015.9
20260507103503 60 0 0.0 0.0 0.00 0.00 0.00 59 1015.8
20260507103003 59 0 0.0 0.0 0.00 0.00 0.00 62 1015.8
20260507102503 59 309 0.0 0.9 0.00 0.00 0.00 59 1015.9
20260507102003 58 309 0.0 0.9 0.00 0.00 0.00 59 1015.8
20260507101503 58 0 0.0 0.0 0.00 0.00 0.00 63 1015.9
20260507101003 58 308 0.0 0.9 0.00 0.00 0.00 64 1015.9
20260507100503 58 308 0.0 0.9 0.00 0.00 0.00 63 1016.0
20260507100003 57 308 0.0 0.0 0.00 0.00 0.00 64 1015.9
20260507095503 57 308 0.0 0.9 0.00 0.00 0.00 65 1016.0
20260507095003 57 308 0.0 0.9 0.00 0.00 0.00 64 1015.8
20260507094503 58 308 0.0 0.9 0.00 0.00 0.00 66 1015.7
20260507094003 58 308 0.0 0.9 0.00 0.00 0.00 67 1015.6
20260507093503 57 0 0.0 0.0 0.00 0.00 0.00 68 1015.6
20260507093003 57 308 0.0 0.9 0.00 0.00 0.00 70 1015.7
20260507092503 57 308 0.0 0.9 0.00 0.00 0.00 69 1015.8
20260507092003 57 0 0.0 0.0 0.00 0.00 0.00 71 1015.8
20260507091714 57 0 0.0 0.0 0.00 0.00 0.00 70 1015.7
20260507091003 56 308 0.0 0.9 0.00 0.00 0.00 70 1015.6
20260507090713 56 308 0.0 0.9 0.00 0.00 0.00 71 1015.6
20260507090214 56 0 0.0 0.0 0.00 0.00 0.00 72 1015.7
20260507085503 56 0 0.0 0.0 0.00 0.00 0.00 73 1015.7
20260507085004 56 0 0.0 0.0 0.00 0.00 0.00 77 1015.7
20260507084504 56 308 0.0 0.0 0.00 0.00 0.00 77 1015.8
20260507084214 56 308 0.0 0.0 0.00 0.00 0.00 77 1015.7
20260507083713 55 0 0.0 0.0 0.00 0.00 0.00 78 1015.7
20260507083004 55 0 0.0 0.0 0.00 0.00 0.00 80 1015.7
20260507082503 54 0 0.0 0.0 0.00 0.00 0.00 80 1015.7
20260507082004 54 0 0.0 0.0 0.00 0.00 0.00 81 1015.8
20260507081503 53 308 0.0 0.9 0.00 0.00 0.00 81 1015.7
20260507081004 53 308 0.0 0.9 0.00 0.00 0.00 81 1015.8
20260507080504 53 0 0.0 0.0 0.00 0.00 0.00 81 1015.8
20260507080214 53 0 0.0 0.0 0.00 0.00 0.00 81 1015.7
20260507075504 52 0 0.0 0.0 0.00 0.00 0.00 81 1015.7
20260507075214 52 0 0.0 0.0 0.00 0.00 0.00 81 1015.6
20260507074503 52 0 0.0 0.0 0.00 0.00 0.00 82 1015.7
20260507074214 52 0 0.0 0.0 0.00 0.00 0.00 82 1015.7
20260507073503 52 0 0.0 0.0 0.00 0.00 0.00 82 1015.6
20260507073004 51 0 0.0 0.0 0.00 0.00 0.00 82 1015.6
20260507072715 51 0 0.0 0.0 0.00 0.00 0.00 82 1015.6
20260507072004 51 0 0.0 0.0 0.00 0.00 0.00 81 1015.5
20260507071504 51 0 0.0 0.0 0.00 0.00 0.00 82 1015.5
20260507071004 51 0 0.0 0.0 0.00 0.00 0.00 82 1015.4
20260507070504 50 0 0.0 0.0 0.00 0.00 0.00 82 1015.4
20260507070007 50 0 0.0 0.0 0.00 0.00 0.00 82 1015.3
20260507065712 50 0 0.0 0.0 0.00 0.00 0.00 82 1015.2
20260507065213 50 0 0.0 0.0 0.00 0.00 0.00 81 1015.2
20260507064504 49 0 0.0 0.0 0.00 0.00 0.00 81 1015.2
20260507064004 49 0 0.0 0.0 0.00 0.00 0.00 81 1015.1
20260507063504 49 0 0.0 0.0 0.00 0.00 0.00 81 1015.2
20260507063004 49 0 0.0 0.0 0.00 0.00 0.00 81 1015.2
20260507062714 48 0 0.0 0.0 0.00 0.00 0.00 81 1015.1
20260507062003 48 0 0.0 0.0 0.00 0.00 0.00 81 1015.2
20260507061504 48 0 0.0 0.0 0.00 0.00 0.00 81 1015.2
20260507061003 48 308 0.0 0.9 0.00 0.00 0.00 81 1015.2
20260507060503 48 308 0.0 0.9 0.00 0.00 0.00 82 1015.1
20260507060003 48 0 0.0 0.0 0.00 0.00 0.00 82 1015.0
20260507055504 47 0 0.0 0.0 0.00 0.00 0.00 82 1015.0
20260507055004 47 0 0.0 0.0 0.00 0.00 0.00 82 1015.1
20260507054504 47 0 0.0 0.0 0.00 0.00 0.00 83 1015.0
20260507054004 46 0 0.0 0.0 0.00 0.00 0.00 83 1015.0
20260507053504 46 0 0.0 0.0 0.00 0.00 0.00 83 1014.9
20260507053004 46 0 0.0 0.0 0.00 0.00 0.00 84 1015.1
20260507052503 46 0 0.0 0.0 0.00 0.00 0.00 84 1015.0
20260507052003 45 0 0.0 0.0 0.00 0.00 0.00 85 1014.9
20260507051714 45 0 0.0 0.0 0.00 0.00 0.00 85 1015.0
20260507051004 45 0 0.0 0.0 0.00 0.00 0.00 84 1014.9
20260507050504 45 0 0.0 0.0 0.00 0.00 0.00 84 1014.9
20260507050004 44 0 0.0 0.0 0.00 0.00 0.00 84 1014.8
20260507045504 44 0 0.0 0.0 0.00 0.00 0.00 84 1014.8
20260507045213 44 0 0.0 0.0 0.00 0.00 0.00 84 1014.8
20260507044714 44 0 0.0 0.0 0.00 0.00 0.00 84 1014.9
20260507044003 45 0 0.0 0.0 0.00 0.00 0.00 83 1014.8
20260507043503 45 0 0.0 0.0 0.00 0.00 0.00 83 1014.8
20260507043003 46 0 0.0 0.0 0.00 0.00 0.00 82 1014.6
20260507042504 46 0 0.0 0.0 0.00 0.00 0.00 82 1014.7
20260507042004 46 0 0.0 0.0 0.00 0.00 0.00 82 1014.7
20260507041714 46 0 0.0 0.0 0.00 0.00 0.00 81 1014.7
20260507041004 47 0 0.0 0.0 0.00 0.00 0.00 81 1014.8
20260507040503 47 0 0.0 0.0 0.00 0.00 0.00 82 1014.8
20260507040214 47 0 0.0 0.0 0.00 0.00 0.00 82 1014.8
20260507035503 47 0 0.0 0.0 0.00 0.00 0.00 82 1014.7
20260507035003 46 0 0.0 0.0 0.00 0.00 0.00 82 1014.7
20260507034504 46 0 0.0 0.0 0.00 0.00 0.00 82 1014.6
20260507034003 47 0 0.0 0.0 0.00 0.00 0.00 82 1014.7
20260507033504 47 0 0.0 0.0 0.00 0.00 0.00 82 1014.5
20260507033004 47 0 0.0 0.0 0.00 0.00 0.00 82 1014.5
20260507032713 47 0 0.0 0.0 0.00 0.00 0.00 82 1014.5
20260507032004 47 0 0.0 0.0 0.00 0.00 0.00 82 1014.5
20260507031713 47 0 0.0 0.0 0.00 0.00 0.00 82 1014.6
20260507031003 47 0 0.0 0.0 0.00 0.00 0.00 83 1014.5
20260507030504 47 0 0.0 0.0 0.00 0.00 0.00 83 1014.5
20260507030004 47 0 0.0 0.0 0.00 0.00 0.00 83 1014.6
20260507025504 47 0 0.0 0.0 0.00 0.00 0.00 83 1014.6
20260507025004 47 0 0.0 0.0 0.00 0.00 0.00 84 1014.6
20260507024713 47 0 0.0 0.0 0.00 0.00 0.00 84 1014.6
20260507024003 47 0 0.0 0.0 0.00 0.00 0.00 84 1014.5
20260507023503 48 0 0.0 0.0 0.00 0.00 0.00 84 1014.6
20260507023214 48 0 0.0 0.0 0.00 0.00 0.00 84 1014.4
20260507022503 48 0 0.0 0.0 0.00 0.00 0.00 85 1014.5
20260507022003 48 0 0.0 0.0 0.00 0.00 0.00 85 1014.5
20260507021503 48 0 0.0 0.0 0.00 0.00 0.00 85 1014.5
20260507021003 48 0 0.0 0.0 0.00 0.00 0.00 85 1014.5
20260507020504 48 0 0.0 0.0 0.00 0.00 0.00 85 1014.5
20260507020003 48 0 0.0 0.0 0.00 0.00 0.00 85 1014.5
20260507015503 48 0 0.0 0.0 0.00 0.00 0.00 85 1014.5
20260507015003 48 0 0.0 0.0 0.00 0.00 0.00 85 1014.5
20260507014503 48 0 0.0 0.0 0.00 0.00 0.00 85 1014.6
20260507014214 48 0 0.0 0.0 0.00 0.00 0.00 85 1014.5
20260507013504 48 0 0.0 0.0 0.00 0.00 0.00 85 1014.5
20260507013004 48 0 0.0 0.0 0.00 0.00 0.00 85 1014.6
20260507012504 48 0 0.0 0.0 0.00 0.00 0.00 85 1014.6
20260507012004 48 0 0.0 0.0 0.00 0.00 0.00 85 1014.7
20260507011504 48 0 0.0 0.0 0.00 0.00 0.00 84 1014.5
20260507011003 48 0 0.0 0.0 0.00 0.00 0.00 84 1014.6
20260507010503 48 0 0.0 0.0 0.00 0.00 0.00 84 1014.6
20260507010004 48 0 0.0 0.0 0.00 0.00 0.00 84 1014.5
20260507005504 48 0 0.0 0.0 0.00 0.00 0.00 84 1014.6
20260507005004 48 0 0.0 0.0 0.00 0.00 0.00 84 1014.5
20260507004504 48 0 0.0 0.0 0.00 0.00 0.00 84 1014.5
20260507004003 48 0 0.0 0.0 0.00 0.00 0.00 84 1014.5
20260507003714 48 0 0.0 0.0 0.00 0.00 0.00 84 1014.6
20260507003004 48 0 0.0 0.0 0.00 0.00 0.00 84 1014.6
20260507002714 48 0 0.0 0.0 0.00 0.00 0.00 84 1014.7
20260507002003 48 0 0.0 0.0 0.00 0.00 0.00 83 1014.7
20260507001503 48 0 0.0 0.0 0.00 0.00 0.00 83 1014.7
20260507001004 48 0 0.0 0.0 0.00 0.00 0.00 83 1014.7
20260507000504 49 0 0.0 0.0 0.00 0.00 0.00 83 1014.9
20260507000213 49 0 0.0 0.0 0.00 0.00 0.00 83 1014.8
20260506235504 49 0 0.0 0.0 0.00 0.00 0.00 82 1014.8
20260506235004 49 0 0.0 0.0 0.00 0.00 0.00 82 1014.8
20260506234504 49 0 0.0 0.0 0.00 0.00 0.00 82 1014.8
20260506234003 49 0 0.0 0.0 0.00 0.00 0.00 82 1014.8
20260506233503 49 0 0.0 0.0 0.00 0.00 0.00 82 1014.8
20260506233003 49 0 0.0 0.0 0.00 0.00 0.00 82 1014.7
20260506232714 49 0 0.0 0.0 0.00 0.00 0.00 82 1014.7
20260506232004 49 0 0.0 0.0 0.00 0.00 0.00 82 1014.8
20260506231504 49 0 0.0 0.0 0.00 0.00 0.00 82 1014.7
20260506231004 49 0 0.0 0.0 0.00 0.00 0.00 82 1014.7
20260506230503 49 0 0.0 0.0 0.00 0.00 0.00 82 1014.8
20260506230004 49 0 0.0 0.0 0.00 0.00 0.00 82 1014.8
20260506225714 49 0 0.0 0.0 0.00 0.00 0.00 82 1014.7
20260506225003 49 0 0.0 0.0 0.00 0.00 0.00 82 1014.8
20260506224503 49 0 0.0 0.0 0.00 0.00 0.00 82 1014.8
20260506224004 49 0 0.0 0.0 0.00 0.00 0.00 82 1014.8
20260506223504 49 0 0.0 0.0 0.00 0.00 0.00 82 1014.7
20260506223004 49 0 0.0 0.0 0.00 0.00 0.00 82 1014.7
20260506222504 50 0 0.0 0.0 0.00 0.00 0.00 82 1014.7
20260506222004 50 0 0.0 0.0 0.00 0.00 0.00 82 1014.7
20260506221504 50 0 0.0 0.0 0.00 0.00 0.00 82 1014.7
20260506221003 50 0 0.0 0.0 0.00 0.00 0.00 82 1014.6
20260506220503 50 0 0.0 0.0 0.00 0.00 0.00 81 1014.7
20260506220003 50 0 0.0 0.0 0.00 0.00 0.00 81 1014.7
20260506215713 50 0 0.0 0.0 0.00 0.00 0.00 81 1014.7
20260506215004 50 0 0.0 0.0 0.00 0.00 0.00 81 1014.6
20260506214713 50 0 0.0 0.0 0.00 0.00 0.00 81 1014.6
20260506214004 50 0 0.0 0.0 0.00 0.00 0.00 81 1014.7
20260506213713 50 0 0.0 0.0 0.00 0.00 0.00 81 1014.6
20260506213004 50 0 0.0 0.0 0.00 0.00 0.00 81 1014.7
20260506212504 50 0 0.0 0.0 0.00 0.00 0.00 81 1014.7
20260506212003 50 0 0.0 0.0 0.00 0.00 0.00 80 1014.7
20260506211504 50 0 0.0 0.0 0.00 0.00 0.00 80 1014.7
20260506211004 50 0 0.0 0.0 0.00 0.00 0.00 80 1014.6
20260506210503 51 0 0.0 0.0 0.00 0.00 0.00 79 1014.6
20260506210004 51 0 0.0 0.0 0.00 0.00 0.00 79 1014.6
20260506205504 51 0 0.0 0.0 0.00 0.00 0.00 79 1014.7
20260506205003 51 0 0.0 0.0 0.00 0.00 0.00 79 1014.5
20260506204713 51 0 0.0 0.0 0.00 0.00 0.00 78 1014.5
20260506204003 51 0 0.0 0.0 0.00 0.00 0.00 78 1014.5
20260506203503 51 0 0.0 0.0 0.00 0.00 0.00 78 1014.6
20260506203004 51 0 0.0 0.0 0.00 0.00 0.00 78 1014.5
20260506202504 52 0 0.0 0.0 0.00 0.00 0.00 78 1014.5
20260506202004 52 0 0.0 0.0 0.00 0.00 0.00 78 1014.4
20260506201504 52 0 0.0 0.0 0.00 0.00 0.00 77 1014.4
20260506201003 52 0 0.0 0.0 0.00 0.00 0.00 77 1014.4
20260506200504 52 0 0.0 0.0 0.00 0.00 0.00 77 1014.4
20260506200004 52 0 0.0 0.0 0.00 0.00 0.00 77 1014.3
20260506195503 53 0 0.0 0.0 0.00 0.00 0.00 76 1014.2
20260506195213 53 0 0.0 0.0 0.00 0.00 0.00 76 1014.2
20260506194504 53 0 0.0 0.0 0.00 0.00 0.00 76 1014.1
20260506194213 53 0 0.0 0.0 0.00 0.00 0.00 76 1014.1
20260506193504 54 0 0.0 0.0 0.00 0.00 0.00 75 1014.0
20260506193213 54 0 0.0 0.0 0.00 0.00 0.00 75 1014.1
20260506192714 54 0 0.0 0.0 0.00 0.00 0.00 74 1014.1
20260506192004 54 0 0.0 0.0 0.00 0.00 0.00 73 1014.1
20260506191503 54 0 0.0 0.0 0.00 0.00 0.00 72 1014.0
20260506191213 54 0 0.0 0.0 0.00 0.00 0.00 72 1013.9
20260506190503 55 0 0.0 0.0 0.00 0.00 0.00 70 1014.0
20260506190213 55 0 0.0 0.0 0.00 0.00 0.00 69 1013.9
20260506185504 55 0 0.0 0.0 0.00 0.00 0.00 66 1014.0
20260506185004 55 0 0.0 0.0 0.00 0.00 0.00 63 1013.9
20260506184503 55 0 0.0 0.0 0.00 0.00 0.00 60 1014.0
20260506184213 55 0 0.0 0.0 0.00 0.00 0.00 60 1013.9
20260506183503 55 0 0.0 0.0 0.00 0.00 0.00 58 1013.8
20260506183003 55 0 0.0 0.0 0.00 0.00 0.00 59 1013.8
20260506182503 56 0 0.0 0.0 0.00 0.00 0.00 59 1013.7
20260506182003 56 0 0.0 0.0 0.00 0.00 0.00 60 1013.7
20260506181504 56 309 0.0 0.9 0.00 0.00 0.00 59 1013.7
20260506181004 56 309 0.0 0.9 0.00 0.00 0.00 59 1013.8
20260506180504 56 0 0.0 0.0 0.00 0.00 0.00 59 1013.7
20260506180004 56 0 0.0 0.0 0.00 0.00 0.00 58 1013.7
20260506175503 56 0 0.0 0.0 0.00 0.00 0.00 59 1013.7
20260506175003 56 0 0.0 0.0 0.00 0.00 0.00 59 1013.7
20260506174503 56 0 0.0 0.0 0.00 0.00 0.00 59 1013.6
20260506174003 56 0 0.0 0.0 0.00 0.00 0.00 58 1013.5
20260506173503 56 0 0.0 0.0 0.00 0.00 0.00 58 1013.6
20260506173004 56 0 0.0 0.0 0.00 0.00 0.00 58 1013.6
20260506172504 57 0 0.0 0.0 0.00 0.00 0.00 55 1013.6
20260506172004 57 0 0.0 0.0 0.00 0.00 0.00 56 1013.5
20260506171504 57 0 0.0 0.0 0.00 0.00 0.00 56 1013.5
20260506171003 57 0 0.0 0.0 0.00 0.00 0.00 56 1013.4
20260506170503 57 0 0.0 0.0 0.00 0.00 0.00 57 1013.4
20260506170004 57 0 0.0 0.0 0.00 0.00 0.00 55 1013.3
20260506165503 57 0 0.0 0.0 0.00 0.00 0.00 56 1013.4
20260506165004 57 0 0.0 0.0 0.00 0.00 0.00 56 1013.3
20260506164504 57 0 0.0 0.0 0.00 0.00 0.00 56 1013.3
20260506164214 57 0 0.0 0.0 0.00 0.00 0.00 57 1013.4
20260506163503 58 0 0.0 0.0 0.00 0.00 0.00 55 1013.4
20260506163004 58 0 0.0 0.0 0.00 0.00 0.00 55 1013.4
20260506162504 58 0 0.0 0.0 0.00 0.00 0.00 56 1013.5
20260506162004 58 0 0.0 0.0 0.00 0.00 0.00 55 1013.5
20260506161503 59 0 0.0 0.0 0.00 0.00 0.00 55 1013.4
20260506161003 59 0 0.0 0.0 0.00 0.00 0.00 53 1013.3
20260506160504 59 0 0.0 0.0 0.00 0.00 0.00 53 1013.3
20260506160004 59 0 0.0 0.0 0.00 0.00 0.00 52 1013.1